Wind_Speed
23 24 25 26 26 26 27 28 29 29 30 29 30 31 32 33 34 33 33 33 33 34 32 31 31 31 32 32 31 31 31 31 31 31 31 31 31 30 29 29 27 26 25 25
22 23 25 25 26 26 27 28 29 28 29 30 30 31 32 32 33 34 35 34 35 34 33 32 32 32 32 32 31 31 31 31 30 30 31 31 30 29 28 28 27 26 24 25
22 23 23 24 23 25 27 28 28 28 28 30 31 30 31 31 32 33 34 34 35 34 33 32 31 31 30 31 32 31 31 31 31 31 31 31 31 31 29 28 27 26 25 24
23 23 23 22 22 23 24 25 26 27 27 28 29 29 29 30 31 31 33 33 33 34 34 33 31 31 31 31 30 31 31 31 32 32 32 31 31 31 30 29 28 26 26 25
22 22 22 21 21 21 23 24 25 27 28 28 28 27 27 28 29 30 31 31 32 32 32 31 30 30 30 29 30 31 31 32 32 32 32 32 31 30 29 28 27 27 27 26
21 21 21 20 19 20 22 24 25 26 26 26 26 27 27 28 28 29 29 29 29 30 31 30 30 30 30 30 30 30 30 31 31 32 31 31 31 30 29 28 28 27 26 25
21 21 21 20 20 21 23 24 24 24 24 25 26 27 27 28 28 28 28 28 28 29 30 29 29 30 30 29 29 30 31 30 30 30 30 30 30 29 28 28 28 27 26 26
20 21 21 21 22 22 23 24 24 23 24 25 25 25 26 26 26 27 27 28 28 28 29 29 28 28 29 29 28 28 29 29 29 29 29 30 30 29 29 29 28 27 28 27
20 21 21 21 22 23 23 23 23 24 25 25 25 25 25 25 25 26 26 27 27 27 28 28 27 27 27 27 27 28 28 29 29 29 30 30 30 28 29 29 29 29 28 27
22 21 21 22 22 23 23 24 24 24 24 24 24 24 25 25 24 24 25 25 25 26 27 27 26 25 26 26 27 27 26 27 28 29 29 28 28 28 28 28 29 29 29 28
21 21 21 21 22 23 24 23 23 23 24 23 23 23 23 24 24 24 24 24 24 24 24 25 25 25 25 25 26 26 25 25 26 26 25 25 25 25 26 26 26 27 28 28
21 22 22 22 23 23 23 24 23 23 22 23 23 22 23 23 23 23 23 24 23 23 24 23 23 24 24 24 24 24 24 24 23 23 24 24 23 23 24 24 25 25 27 27
21 21 22 22 22 22 23 23 23 22 22 22 22 22 23 22 21 21 21 22 22 22 21 22 21 22 22 22 21 22 22 21 21 22 22 22 22 22 22 23 23 24 25 26
21 22 21 21 22 22 23 22 22 22 22 22 23 23 23 23 22 21 19 19 19 19 19 19 20 19 20 20 20 20 19 19 20 21 21 21 22 22 22 22 23 23 25 25
21 21 21 21 21 22 22 22 22 22 22 23 23 24 23 22 22 21 19 19 19 19 19 19 19 18 18 18 18 19 19 19 19 19 19 20 20 21 21 21 22 23 24 25
20 21 21 21 21 21 21 21 21 22 22 22 23 22 22 22 21 20 19 18 19 19 18 17 17 17 17 17 18 18 17 17 17 18 18 19 19 20 20 21 22 23 24 24
20 20 21 21 21 20 20 20 20 20 21 21 21 21 21 20 19 20 19 18 17 18 18 17 16 16 16 16 16 15 15 15 15 16 16 17 18 18 19 21 21 22 22 23
19 19 19 19 19 20 19 19 19 20 21 21 20 20 20 20 19 19 19 18 17 17 18 17 16 15 15 15 15 14 14 14 13 14 14 16 17 17 18 18 18 19 20 21
19 19 19 18 19 19 19 19 20 20 20 20 20 20 19 19 20 20 19 19 18 17 16 16 15 15 14 14 14 14 14 13 13 14 15 16 16 16 16 17 17 17 18 19
19 18 18 18 19 20 19 19 19 20 20 19 19 19 19 18 18 18 18 17 16 15 15 14 14 14 13 13 13 13 13 13 13 13 13 14 15 15 15 15 15 15 16 18
18 18 18 18 19 19 19 19 18 19 19 19 19 19 18 17 17 17 16 15 14 14 14 14 13 13 13 13 13 13 13 13 13 14 14 14 15 15 15 15 16 16 16 16
17 17 17 17 17 17 18 18 18 18 18 18 18 18 17 17 17 16 15 15 15 14 14 14 13 13 13 14 13 13 13 14 14 14 14 14 15 15 15 15 16 15 16 16
16 16 16 16 16 17 17 17 17 17 17 16 16 16 16 16 15 15 14 14 14 14 13 14 14 14 14 14 14 14 14 15 15 15 14 14 15 14 14 15 16 16 16 17
16 16 16 17 17 17 17 17 16 16 15 15 14 14 14 14 15 14 13 13 13 13 13 13 14 14 14 14 14 14 13 14 14 13 13 13 14 14 15 15 16 16 17 17
15 16 17 17 17 16 16 16 16 15 15 14 13 13 14 14 14 13 12 12 12 13 14 13 14 14 14 14 14 13 13 13 13 12 11 12 13 14 14 14 15 15 16 16
16 17 17 17 16 16 16 15 15 15 15 15 15 14 14 14 13 12 13 13 13 13 13 13 13 13 13 13 13 13 13 13 12 12 12 13 13 13 14 14 13 14 15 15
16 16 17 16 15 15 15 14 14 14 14 15 15 15 15 14 14 14 14 13 14 14 14 14 13 13 13 14 13 13 13 13 13 13 12 11 11 12 12 12 12 12 13 14
Wind_Direction
263 260 258 259 262 263 264 265 265 266 267 268 270 271 272 273 273 274 273 273 275 274 273 271 271 273 273 274 274 275 274 273 273 274 274 274 272 270 269 268 267 268 266 264
266 266 263 261 262 265 265 265 266 269 270 270 272 274 274 274 274 273 274 274 273 273 272 270 270 273 274 273 273 275 273 272 272 272 273 274 272 270 271 268 266 266 265 262
267 266 267 264 264 265 266 266 269 272 274 273 273 276 278 275 274 274 275 275 274 273 271 270 271 272 274 275 273 274 272 271 272 272 272 272 269 269 269 267 265 263 264 264
271 269 269 266 265 267 270 272 273 275 276 277 278 278 277 276 276 276 275 275 273 273 273 272 272 274 274 274 273 273 273 273 272 271 270 270 269 268 267 264 262 261 261 260
272 272 271 268 269 271 273 275 276 276 277 280 281 280 281 281 280 278 275 274 273 274 273 271 273 274 275 275 274 275 273 271 271 271 269 268 267 266 264 261 259 260 259 258
273 275 275 273 271 274 276 278 280 282 281 283 282 281 281 283 283 280 277 275 274 274 275 274 274 274 274 275 275 275 274 272 271 270 269 267 264 263 262 260 259 258 257 256
272 275 275 275 275 277 279 281 283 284 284 284 284 287 284 284 282 280 278 278 278 277 277 277 275 275 274 275 275 275 273 271 270 269 266 264 263 261 260 259 257 255 255 255
275 276 275 277 277 277 281 281 282 283 284 285 287 290 288 288 286 285 282 281 281 281 280 279 277 275 275 276 276 277 275 272 269 268 265 262 261 259 257 257 256 255 254 254
278 279 277 277 279 281 283 284 284 284 286 286 286 290 290 290 289 286 285 284 283 283 282 280 280 278 277 277 277 277 275 273 268 267 265 263 260 258 256 255 254 253 252 252
277 278 278 280 282 284 287 288 288 287 287 288 288 289 290 291 292 289 287 287 286 286 283 281 281 279 278 277 278 277 274 272 270 268 265 264 261 257 255 253 251 251 251 251
277 278 279 280 283 286 290 291 291 291 290 290 294 294 296 295 293 291 290 289 288 287 286 283 280 279 278 278 277 276 276 274 271 267 263 263 261 256 253 253 251 250 251 249
279 279 280 281 282 286 289 291 292 293 293 292 294 294 296 298 296 294 292 290 289 288 288 287 285 281 278 278 277 277 275 273 270 266 265 264 261 257 255 254 253 252 252 250
280 281 281 281 283 285 287 290 292 294 295 295 296 295 299 300 299 298 297 295 292 290 289 289 288 285 280 278 277 276 275 272 269 266 265 264 261 259 258 257 256 254 254 252
281 282 282 282 284 285 286 287 290 294 296 295 296 297 299 301 302 302 302 300 296 295 293 291 291 287 282 279 278 276 274 273 270 267 264 264 262 260 261 261 259 257 255 252
282 283 283 283 283 284 285 287 288 290 291 293 295 296 298 300 301 302 300 299 297 295 294 292 290 289 285 283 281 280 276 273 272 267 264 262 261 261 261 261 260 258 256 253
283 283 283 283 283 284 285 287 287 289 291 292 294 296 298 299 299 300 298 297 295 294 296 293 290 290 291 288 286 285 282 278 273 268 267 263 262 262 261 260 259 259 258 255
286 286 286 286 283 283 284 286 286 288 291 293 294 295 296 298 298 299 299 299 300 298 297 297 293 292 289 289 290 289 286 283 277 270 268 266 265 263 262 262 263 261 258 255
288 289 289 287 285 283 285 286 287 290 292 294 294 294 295 297 299 301 300 300 302 299 297 296 295 292 290 290 289 287 287 285 280 275 270 268 267 264 262 263 265 261 259 255
293 289 287 284 284 285 285 286 288 290 293 293 293 294 296 296 298 300 299 298 300 299 297 294 295 294 290 289 292 291 289 286 282 278 272 269 269 269 266 264 261 258 258 256
294 291 286 284 285 287 286 287 289 291 293 293 293 294 296 296 297 298 298 298 298 298 297 298 297 296 293 292 294 293 290 287 286 283 278 273 269 268 266 265 262 257 257 259
296 294 291 289 288 288 287 286 287 289 292 293 294 294 294 294 296 296 295 296 297 298 298 297 297 296 296 296 294 292 290 287 285 283 279 274 271 268 264 265 265 260 259 262
298 297 294 291 288 287 287 287 287 289 291 294 295 294 292 290 291 294 293 294 295 296 297 298 298 298 298 298 295 291 288 286 285 285 279 274 273 271 269 268 268 264 263 266
299 298 296 293 291 289 289 288 288 289 292 294 295 295 293 291 292 293 293 293 294 295 296 298 298 298 297 296 296 293 289 288 287 283 278 274 272 269 269 268 267 264 262 264
296 297 298 297 294 293 291 289 288 288 290 292 294 296 296 295 295 294 293 295 297 298 298 297 297 299 298 297 296 295 293 291 290 286 280 278 278 276 274 271 268 266 266 268
297 298 299 298 298 295 292 291 289 289 288 289 292 295 298 298 297 300 302 303 304 303 303 301 299 301 303 302 300 298 295 294 293 291 287 284 282 280 277 274 271 269 269 268
295 296 298 298 296 295 292 290 289 285 284 285 286 289 292 295 296 297 299 301 301 302 302 301 302 305 306 304 301 299 296 294 292 293 291 288 287 284 279 274 273 272 271 270
291 293 296 297 295 292 291 290 289 286 285 286 286 288 289 291 293 295 297 299 299 299 301 302 304 305 306 306 305 303 300 297 296 297 296 292 290 288 285 280 280 280 279 279
Height
5813 5813 5812 5812 5812 5811 5810 5809 5809 5808 5807 5807 5806 5805 5804 5802 5800 5798 5798 5797 5797 5796 5795 5796 5795 5795 5796 5796 5795 5795 5794 5794 5794 5794 5793 5792 5792 5792 5792 5793 5793 5794 5794 5795
5806 5806 5805 5805 5805 5804 5803 5802 5802 5801 5800 5799 5798 5796 5795 5794 5792 5790 5789 5788 5787 5787 5787 5787 5787 5786 5786 5785 5785 5785 5785 5785 5785 5784 5784 5784 5782 5782 5783 5783 5784 5785 5786 5787
5799 5799 5798 5798 5798 5797 5796 5795 5795 5794 5793 5791 5790 5788 5787 5785 5784 5782 5780 5779 5778 5778 5777 5777 5777 5777 5776 5776 5776 5776 5776 5775 5775 5775 5775 5775 5774 5774 5775 5775 5776 5777 5778 5778
5791 5792 5791 5794 5791 5790 5789 5788 5787 5786 5785 5783 5781 5780 5778 5776 5775 5773 5771 5770 5769 5769 5768 5768 5768 5767 5767 5767 5767 5766 5766 5766 5765 5765 5765 5765 5765 5765 5766 5767 5768 5769 5770 5771
5785 5784 5784 5785 5784 5783 5782 5781 5780 5779 5777 5775 5773 5772 5769 5768 5766 5765 5763 5762 5762 5761 5760 5759 5759 5758 5757 5757 5757 5757 5756 5756 5755 5755 5755 5755 5756 5756 5757 5758 5759 5760 5761 5763
5778 5778 5778 5780 5779 5777 5777 5775 5773 5771 5769 5768 5766 5764 5762 5760 5757 5756 5755 5754 5754 5753 5752 5751 5750 5749 5748 5748 5747 5747 5746 5746 5745 5745 5745 5745 5746 5747 5748 5749 5750 5752 5753 5755
5773 5772 5772 5773 5772 5772 5771 5770 5767 5765 5763 5761 5759 5756 5754 5752 5750 5749 5748 5747 5746 5745 5744 5743 5742 5740 5739 5739 5738 5737 5736 5736 5735 5735 5735 5735 5736 5737 5739 5740 5742 5743 5745 5747
5767 5767 5768 5766 5765 5765 5764 5762 5760 5759 5757 5754 5752 5749 5746 5745 5743 5741 5740 5739 5738 5737 5735 5734 5733 5731 5731 5730 5729 5728 5727 5726 5726 5726 5725 5726 5726 5727 5729 5731 5733 5734 5736 5738
5762 5763 5761 5759 5758 5758 5756 5755 5754 5752 5750 5748 5745 5743 5740 5738 5736 5734 5733 5731 5729 5728 5727 5726 5724 5723 5722 5721 5720 5719 5718 5717 5717 5716 5716 5716 5717 5718 5719 5721 5724 5726 5728 5730
5755 5755 5754 5753 5751 5750 5749 5748 5747 5745 5743 5741 5739 5736 5734 5731 5729 5727 5725 5723 5722 5720 5718 5717 5716 5714 5713 5712 5710 5709 5708 5707 5707 5707 5707 5707 5708 5709 5710 5712 5714 5717 5719 5721
5749 5749 5748 5747 5745 5744 5742 5741 5740 5738 5736 5734 5732 5730 5727 5724 5722 5720 5718 5716 5714 5712 5711 5709 5708 5706 5704 5703 5701 5700 5700 5699 5698 5698 5698 5699 5699 5699 5701 5703 5705 5708 5709 5711
5744 5743 5742 5740 5739 5737 5736 5735 5733 5732 5730 5727 5725 5723 5721 5718 5715 5713 5711 5709 5707 5705 5703 5702 5700 5698 5697 5695 5693 5692 5692 5691 5691 5690 5690 5691 5692 5693 5694 5695 5697 5699 5701 5703
5737 5736 5735 5734 5732 5731 5730 5728 5727 5725 5723 5721 5719 5717 5714 5711 5709 5706 5704 5702 5700 5698 5696 5694 5692 5691 5689 5687 5686 5685 5684 5684 5684 5683 5684 5684 5685 5686 5687 5688 5689 5691 5693 5695
5730 5729 5728 5727 5726 5725 5723 5722 5721 5719 5717 5715 5713 5711 5708 5706 5703 5701 5698 5696 5694 5691 5690 5688 5686 5685 5683 5681 5680 5679 5678 5677 5677 5677 5677 5677 5678 5679 5680 5681 5682 5683 5685 5687
5723 5722 5721 5720 5719 5718 5717 5716 5714 5713 5711 5709 5707 5705 5703 5700 5698 5695 5693 5690 5688 5685 5684 5682 5680 5679 5677 5675 5674 5673 5672 5671 5670 5670 5670 5670 5671 5672 5673 5674 5675 5676 5677 5678
5717 5715 5714 5713 5712 5712 5710 5709 5708 5706 5704 5703 5701 5699 5697 5694 5692 5690 5687 5684 5682 5680 5678 5676 5675 5673 5671 5670 5668 5667 5666 5665 5664 5664 5664 5664 5664 5665 5666 5667 5667 5668 5669 5670
5710 5709 5707 5706 5706 5705 5704 5703 5701 5699 5698 5697 5695 5693 5691 5689 5687 5684 5682 5679 5677 5675 5673 5671 5669 5668 5667 5665 5663 5662 5660 5659 5658 5658 5658 5658 5658 5659 5659 5659 5660 5660 5661 5662
5704 5702 5701 5700 5699 5698 5698 5696 5695 5693 5692 5690 5689 5687 5686 5684 5682 5679 5676 5674 5672 5670 5668 5666 5664 5663 5662 5660 5658 5657 5655 5654 5653 5653 5652 5652 5652 5652 5652 5653 5653 5654 5655 5656
5697 5696 5695 5694 5693 5692 5691 5690 5689 5687 5686 5684 5683 5682 5680 5678 5676 5674 5672 5670 5667 5666 5664 5662 5660 5659 5657 5655 5653 5652 5651 5650 5649 5648 5647 5647 5646 5646 5646 5646 5647 5648 5648 5649
5691 5690 5688 5687 5687 5686 5684 5683 5682 5681 5680 5678 5677 5676 5675 5673 5671 5669 5667 5665 5663 5661 5660 5658 5656 5654 5652 5651 5649 5648 5646 5645 5644 5643 5642 5642 5641 5641 5641 5641 5642 5642 5642 5643
5685 5684 5683 5681 5680 5679 5678 5677 5676 5675 5674 5673 5672 5670 5669 5667 5665 5663 5662 5660 5659 5657 5655 5654 5652 5650 5648 5647 5645 5644 5642 5641 5640 5639 5638 5637 5636 5636 5636 5636 5636 5636 5637 5637
5680 5678 5677 5675 5674 5673 5672 5671 5670 5669 5668 5667 5666 5665 5664 5662 5660 5659 5658 5656 5655 5653 5651 5650 5648 5646 5644 5643 5641 5639 5638 5637 5636 5634 5633 5632 5632 5631 5631 5631 5631 5631 5631 5632
5674 5673 5671 5670 5669 5667 5666 5665 5664 5664 5663 5662 5661 5660 5658 5657 5656 5655 5654 5652 5650 5649 5647 5646 5644 5642 5640 5639 5637 5635 5634 5632 5631 5630 5628 5628 5627 5626 5626 5626 5626 5626 5626 5626
5669 5668 5666 5665 5664 5662 5661 5660 5659 5658 5658 5657 5656 5655 5654 5653 5651 5650 5649 5647 5646 5644 5643 5642 5640 5638 5636 5634 5633 5631 5629 5628 5626 5625 5624 5623 5622 5621 5621 5620 5620 5620 5620 5621
5664 5663 5662 5660 5659 5657 5656 5655 5654 5654 5653 5652 5652 5651 5649 5648 5647 5646 5644 5643 5642 5640 5639 5637 5636 5634 5632 5630 5628 5627 5625 5624 5622 5621 5620 5619 5617 5616 5615 5615 5615 5615 5615 5615
5660 5658 5657 5655 5654 5653 5652 5651 5650 5649 5648 5647 5647 5646 5645 5644 5642 5641 5640 5639 5638 5636 5635 5633 5632 5630 5628 5626 5624 5622 5621 5619 5618 5617 5615 5614 5613 5612 5611 5610 5610 5610 5610 5610
5655 5654 5652 5651 5650 5649 5647 5646 5645 5644 5643 5643 5642 5641 5640 5639 5638 5637 5636 5634 5633 5632 5631 5629 5628 5626 5624 5622 5620 5618 5616 5615 5614 5613 5612 5610 5609 5608 5607 5607 5606 5606 5605 5605